Regional Weather Roundup
Issued by NWS

Home | Current Version | Previous Version | Text Only | Print | Product List | Glossary Off
Versions: 1 2 3 4 5 6 7 8 9 10 11 12 13 14 15 16 17 18 19 20 21 22 23 24 25 26 27 28 29 30 31 32 33 34 35 36 37 38 39 40 41 42 43 44 45 46 47 48 49 50

000
ASUS43 KFSD 291110
RWRSD

WEATHER ROUNDUP FOR SOUTH DAKOTA
NATIONAL WEATHER SERVICE SIOUX FALLS SD
600 AM CDT WED JUL 29 2015

NOTE: "FAIR" INDICATES FEW OR NO CLOUDS BELOW 12,000 FEET WITH NO
SIGNIFICANT WEATHER AND/OR OBSTRUCTIONS TO VISIBILITY.


SDZ001>005-009-010-012>017-291200-
NORTHWEST AND NORTH CENTRAL SOUTH DAKOTA

CITY           SKY/WX    TMP DP  RH WIND       PRES   REMARKS
BUFFALO          N/A     51  39  63 W9        30.08R
FAITH            N/A     56  38  50 SW17      30.12R
MOBRIDGE       CLEAR     63  45  51 W10G20    30.01R
$$

SDZ012>016-024>037-041>051-057-063-072>074-291200-
SOUTHWEST AND SOUTH CENTRAL SOUTH DAKOTA

CITY           SKY/WX    TMP DP  RH WIND       PRES   REMARKS
RAPID CTY ARPT CLEAR     52  40  63 W5        30.22S
PIERRE         CLEAR     61  44  53 W17       30.09S
CUSTER         CLEAR     49  32  52 W6        30.34R
ELLSWORTH AFB  CLEAR     53  40  60 W8        30.21R
PHILIP         CLEAR     52  46  80 W6        30.17R
PINE RIDGE     CLEAR     42  38  85 CALM      30.25S
SPEARFISH      FAIR      59  36  41 W9        30.25R
WINNER         FAIR      61  44  53 SW9       30.16R
$$

SDZ004>011-016>023-039-040-291200-
NORTHEAST SOUTH DAKOTA

CITY           SKY/WX    TMP DP  RH WIND       PRES   REMARKS
ABERDEEN       CLEAR     57  49  74 SW13      29.98R
WATERTOWN      CLEAR     60  47  61 W10       29.99S
BROOKINGS      CLEAR     57  46  67 SW10      30.06S
SISSETON         N/A     65  48  54 W17G29    29.90R
$$

SDZ017-020-022-023-036>040-048>070-291200-
SOUTHEAST SOUTH DAKOTA

CITY           SKY/WX    TMP DP  RH WIND       PRES   REMARKS
SIOUX FALLS    CLEAR     60  51  72 SW3       30.09R
HURON          CLEAR     59  48  67 SW10      30.05R
CHAMBERLAIN    CLEAR     58  49  74 W7        30.13R
MITCHELL       CLEAR     61  50  67 W10       30.09R
YANKTON        CLEAR     61  52  72 S5        30.11R
$$

ABBREVIATIONS USED IN REMARKS
   TC - TEMPERATURE IN CELSIUS
  WCI - WIND CHILL INDEX
   HX - HEAT INDEX
  VSB - VISIBILITY




USA.gov is the U.S. government's official web portal to all federal, state and local government web resources and services.